Regional Weather Roundup
Issued by NWS Wilmington, NC

Home | Current Version | Previous Version | Text Only | Print | Product List | Glossary On
Versions: 1 2 3 4 5 6 7 8 9 10 11 12 13 14 15 16 17 18 19 20 21 22 23 24 25 26 27 28 29 30 31 32 33 34 35 36 37 38 39 40 41 42 43 44 45 46 47 48 49 50
000
ASUS42 KILM 112113
RWRILM
RWRILM
REGIONAL HOURLY WEATHER ROUNDUP
NATIONAL WEATHER SERVICE WILMINGTON NC
400 PM EST THU FEB 11 2016

NOTE: "FAIR" INDICATES FEW OR NO CLOUDS BELOW 12,000 FEET WITH NO
SIGNIFICANT WEATHER AND/OR OBSTRUCTIONS TO VISIBILITY.

...............WFO WILMINGTON COUNTY WARNING AREA...............

......COASTAL NC AND SC COUNTIES......

CITY           SKY/WX    TMP DP  RH WIND       PRES   REMARKS
WILMINGTON     SUNNY     48  17  29 NW10      30.17R
N MYRTLE BEACH SUNNY     47  26  44 S9        30.16R
MYRTLE BEACH   SUNNY     46  25  42 S16       30.18S

......INLAND NC AND SC COUNTIES.......

CITY           SKY/WX    TMP DP  RH WIND       PRES   REMARKS
LUMBERTON      SUNNY     46  20  35 W9        30.15S
ELIZABETHTOWN  SUNNY     45  16  31 NW6       30.16S
WHITEVILLE     SUNNY     46  17  31 NW3       30.16R
FLORENCE       SUNNY     48  20  32 W6        30.16R
DARLINGTON     SUNNY     48  21  34 W6G16     30.15S
KINGSTREE      FAIR      50  23  34 W7        30.16R
HARTSVILLE     FAIR      46  19  34 CALM      30.13S
BENNETTSVILLE  FAIR      50  23  34 N7        30.14S
CONWAY         FAIR      46  21  36 N6        30.16R
GEORGETOWN     FAIR      50  23  34 W8        30.17R
MARION         FAIR      48  21  34 W10       30.16R

....................REST OF NORTH CAROLINA......................

.........EASTERN NC.........

CITY           SKY/WX    TMP DP  RH WIND       PRES   REMARKS
CAPE HATTERAS  SUNNY     39  13  34 VRB6G20   30.17R WCI  35
JACKSONVILLE   SUNNY     43  12  28 W7G16     30.18R
MOREHEAD CITY  SUNNY     42  14  32 NW13      30.17R
KENANSVILLE    SUNNY     43  13  29 W6        30.18R
NEW BERN       SUNNY     42  10  27 W10       30.18R
ELIZABETH CITY SUNNY     36   8  31 W15G24    30.15R WCI  27

.........CENTRAL NC.........

CITY           SKY/WX    TMP DP  RH WIND       PRES   REMARKS
RALEIGH DURHAM MOSUNNY   41   7  24 VRB7      30.16S
ROCKY MOUNT    SUNNY     39   6  25 NW14      30.16S WCI  31
ROANOKE RAPIDS NOT AVBL
FAYETTEVILLE   SUNNY     46  15  28 W14G20    30.15R
HOFFMAN        SUNNY     45  16  31 W13       30.14S

.........WESTERN NC.........

CITY           SKY/WX    TMP DP  RH WIND       PRES   REMARKS
CHARLOTTE      MOSUNNY   47  17  30 NW9       30.12F
GREENSBORO     MOSUNNY   39   9  29 VRB6      30.12S WCI  35
HICKORY        NOT AVBL
BOONE          NOT AVBL
ASHEVILLE      NOT AVBL

.....................REST OF SOUTH CAROLINA.....................

.........EASTERN SC.........

CITY           SKY/WX    TMP DP  RH WIND       PRES   REMARKS
CHARLESTON     SUNNY     52  27  38 S15       30.16R
BEAUFORT MCAS  SUNNY     54  32  43 S8        30.16R
HILTON HEAD    SUNNY     50  32  50 S9        30.16F

.........CENTRAL SC.........

CITY           SKY/WX    TMP DP  RH WIND       PRES   REMARKS
COLUMBIA       SUNNY     55  21  26 VRB3      30.13S
ORANGEBURG     SUNNY     54  21  27 W7        30.14S
SUMTER SHAW    SUNNY     52  21  29 VRB7      30.12S

.........WESTERN SC.........

CITY           SKY/WX    TMP DP  RH WIND       PRES   REMARKS
GREENVILLE     NOT AVBL
ROCK HILL      SUNNY     47  19  33 W6        30.12S
ANDERSON       SUNNY     51  22  31 SW8       30.10F
CLEMSON        NOT AVBL
GREENWOOD      SUNNY     52  22  30 VRB5      30.12F


...................COASTAL AND OFFSHORE REPORTS..................

................LOCAL PIERS AND NC RESERVE................


STATION/POSITION TIME  SKY/WX   TEMP    WIND        PRES    VSBY
                                AIR SEA DIR/SP/G
                 (UTC)          (F)     (DEG/KT/KT) (MB)    (MI)
JOHNY MRCER PIER 2000            44 52  270/  6/ 11 1020.3F
NC RESRV MASNBRO NOT AVBL
OCEAN CREST PIER NOT AVBL
SPRINGMAID  PIER 2000            44 49  130/  9/ 11 1021.0F


................COASTAL AND OFFSHORE BUOYS................


STATION/POSITION TIME  SKY/WX   TEMP    WIND        PRES    VSBY
                                AIR SEA DIR/SP/G
                 (UTC)          (F)     (DEG/KT/KT) (MB)    (MI)
DIMNDSHOAL 41025 2050            38 57  280/ 16/ 19 1021.8R
WVE H/P(F/S)=  5/ 4 SWL H/P/D(F/S/D)=  2/160/13

CAPE LOOKOUT     NOT AVBL
ONSLOW BAY 41036 NOT AVBL
ONSLOW BAY 41064 2008            42 59              1021.7S
ONSLOW BAY 41159 2055               59                N/A
WVE H/P(F/S)=  5/ 8

5SE WRITBC 41038 2008            44 50  280/ 10/ 16 1021.8F
MASNBO INL 41110 2036               51                N/A
WVE H/P(F/S)=  2/ 8

WILM HARBR 41108 2056               51                N/A
WVE H/P(F/S)=  3/ 7

27SE WRITB 41037 NOT AVBL
FRYING PAN 41013 2000            42 58  270/ 10/ 16 1022.4F
SUNST NRSH 41024 NOT AVBL
CAPRS NRSH 41029 2008            46     180/ 12/ 14 1021.3F
EDISTO     41004 2050            47 62  230/  4/  8 1022.3S
WVE H/P(F/S)=  4/ 6 SWL H/P/D(F/S/D)=  3/ 6



..........OFFSHORE BUOYS BEYOND 100 NM OFFSHORE...........
.....IN A TRIANGLE---HAT TO BERMUDA TO BAHAMAS TO HAT.....


STATION/POSITION TIME  SKY/WX   TEMP    WIND        PRES    VSBY
                                AIR SEA DIR/SP/G
                 (UTC)          (F)     (DEG/KT/KT) (MB)    (MI)
150E HAT   41001 2000            47 69  280/ 23/ 31 1019.0R
W BERMUDA  41048 2050            62 69  270/ 23/ 31 1018.5R
WVE H/P(F/S)= 15/11 SWL H/P/D(F/S/D)= 10/280/11

ATLANTIC S 41049 2050            72 74  310/ 12/ 16 1020.2R
WVE H/P(F/S)= 10/12 SWL H/P/D(F/S/D)=  8/300/12

E BAHAMAS  41046 2050            76 80   10/ 14/ 17 1020.1R
WVE H/P(F/S)=  9/11 SWL H/P/D(F/S/D)=  8/300/11

NE BAHAMAS 41047 2050            67 75  310/ 12/ 17 1022.8R
WVE H/P(F/S)= 10/11 SWL H/P/D(F/S/D)= 10/320/11

120E CANVRL41010 2020            61 72              1024.5F

END



USA.gov is the U.S. government's official web portal to all federal, state and local government web resources and services.